Tracking 21475 objects as of 29-Sep-2020
HD Live streaming from Space Station
objects crossing your sky now

SL-12 R/B(2)

Track SL-12 R/B(2) now!


NORAD ID: 20502
Int'l Code: 1990-016D
Perigee: 35,706.0 km
Apogee: 36,022.5 km
Inclination: 14.5 °
Period: 1,439.7 minutes
Semi major axis: 42235 km
RCS: 3.9952 m2 (large)
Launch date: February 15, 1990
Source: Commonwealth of Independent States (former USSR) (CIS)
Launch site: TYURATAM MISSILE AND SPACE COMPLEX (TTMTR)

Note: This is a ROCKET BODY
aabbcc
Your satellite tracking list
Your tracking list is empty




NASA's NSSDC Master Catalog

Two Line Element Set (TLE):
1 20502U 90016D   20272.85427892 -.00000290 +00000-0 +00000-0 0  9995
2 20502 014.4897 351.4401 0037469 186.5330 072.6744 01.00020943111885
Source of the keplerian elements: AFSPC